| time (UTC) | temp F | wind direction | speed MPH | gust MPH | rain 1hr in | rain 24hr in | rain mn in | humidity % | barometer mb |
| 20260504173017 | 70 | 225 | 5.0 | 18.0 | 0.00 | 0.00 | 0.00 | 39 | 1011.1 |
| 20260504050017 | 42 | 0.0 | 0.0 | 0.00 | 0.00 | 0.00 | 78 | 1013.8 | |
| 20260504043017 | 42 | 0.0 | 0.0 | 0.00 | 0.00 | 0.00 | 77 | 1013.7 | |
| 20260504040017 | 43 | 0.0 | 0.0 | 0.00 | 0.00 | 0.00 | 75 | 1013.4 | |
| 20260504033017 | 44 | 0.0 | 0.0 | 0.00 | 0.00 | 0.00 | 72 | 1013.2 | |
| 20260504030017 | 45 | 0.0 | 0.0 | 0.00 | 0.00 | 0.00 | 69 | 1013.0 | |
| 20260504023017 | 46 | 0.0 | 0.0 | 0.00 | 0.00 | 0.00 | 65 | 1013.0 | |
| 20260504020018 | 48 | 0.0 | 0.0 | 0.00 | 0.00 | 0.00 | 62 | 1013.0 | |
| 20260504013017 | 51 | 0.0 | 0.0 | 0.00 | 0.00 | 0.00 | 52 | 1012.9 | |
| 20260504010017 | 53 | 0.0 | 0.0 | 0.00 | 0.00 | 0.00 | 46 | 1012.6 | |
| 20260504003017 | 54 | 0.0 | 0.0 | 0.00 | 0.00 | 0.00 | 45 | 1012.3 | |
| 20260504000017 | 57 | 0.0 | 14.0 | 0.00 | 0.00 | 0.00 | 43 | 1011.9 | |
| 20260503233017 | 59 | 0.0 | 10.0 | 0.00 | 0.00 | 0.00 | 38 | 1011.7 | |
| 20260503230017 | 60 | 248 | 1.0 | 13.0 | 0.00 | 0.00 | 0.00 | 37 | 1011.5 |
| 20260503223017 | 60 | 248 | 1.0 | 9.0 | 0.00 | 0.00 | 0.00 | 37 | 1011.4 |
| 20260503220017 | 60 | 248 | 2.0 | 12.0 | 0.00 | 0.00 | 0.00 | 36 | 1011.6 |
| 20260503213017 | 61 | 248 | 2.0 | 14.0 | 0.00 | 0.00 | 0.00 | 35 | 1011.4 |
| 20260503210018 | 61 | 248 | 2.0 | 14.0 | 0.00 | 0.00 | 0.00 | 36 | 1011.4 |
| 20260503203037 | 60 | 248 | 2.0 | 16.0 | 0.00 | 0.00 | 0.00 | 32 | 1011.5 |
| 20260503200018 | 60 | 270 | 5.0 | 16.0 | 0.00 | 0.00 | 0.00 | 34 | 1011.8 |
| 20260503193017 | 59 | 270 | 3.0 | 16.0 | 0.00 | 0.00 | 0.00 | 36 | 1012.2 |
| 20260503190017 | 58 | 270 | 2.0 | 22.0 | 0.00 | 0.00 | 0.00 | 39 | 1012.4 |
| 20260503183017 | 57 | 270 | 2.0 | 16.0 | 0.00 | 0.00 | 0.00 | 35 | 1012.9 |
| 20260503180017 | 56 | 270 | 3.0 | 15.0 | 0.00 | 0.00 | 0.00 | 43 | 1012.9 |